User: anonymous   Login
Location: Unspecified
(0.0000°N, 0.0000°E)
Time: 11:03:21
(UTC+00:00)
Language:

YAHSAT 1A - Orbit

View from above orbital plane
View from above orbital plane
View from above satellite
View from above satellite

Ground track
Ground track

The orbit is defined by the following mean orbital elements,

1 37393U          26145.59412847 +.00000000 +00000-0 +00000-0 0 00006
2 37393   0.0126 324.4404 0003305 111.2312  73.8879  1.00270541    01
Epoch (UTC): 25 May 2026 14:15:32
Eccentricity: 0.0003305
inclination: 0.0126°
perigee height: 35773 km
apogee height: 35801 km
right ascension of ascending node: 324.4404°
argument of perigee: 111.2312°
revolutions per day: 1.00270541
mean anomaly at epoch: 73.8879°

The dashed part of the orbit path shows where the satellite is in the earth's shadow,  

DLR